• In Hungary
  • List of Countries
  • For 7 days
  • Water Temperature
  • Satellite Maps
  • Weather Map
  • News
  • Weather Widgets
  • user-avatar
    Login

    Hourly Weather Sharh

    Today, 20 November, Monday

    Time Temperature Precipitation Wind Pressure Humidity
    00:00 +22°C° 0 mm 6 mps 763 mmHg 57%
    01:00 +22°C° 0 mm 6 mps 763 mmHg 58%
    02:00 +21°C° 0 mm 6 mps 763 mmHg 57%
    03:00 +21°C° 0 mm 6 mps 763 mmHg 56%
    04:00 +21°C° 0 mm 6 mps 763 mmHg 56%
    05:00 +21°C° 0 mm 6 mps 763 mmHg 53%
    06:00 +21°C° 0 mm 6 mps 763 mmHg 51%
    07:00 +21°C° 0 mm 6 mps 764 mmHg 48%
    08:00 +23°C° 0 mm 6 mps 764 mmHg 40%
    09:00 +27°C° 0 mm 6 mps 764 mmHg 32%
    10:00 +29°C° 0 mm 7 mps 764 mmHg 23%
    11:00 +30°C° 0 mm 7 mps 764 mmHg 21%
    12:00 +32°C° 0 mm 7 mps 763 mmHg 20%
    13:00 +32°C° 0 mm 7 mps 763 mmHg 19%
    14:00 +32°C° 0 mm 7 mps 762 mmHg 20%
    15:00 +30°C° 0 mm 7 mps 762 mmHg 22%
    16:00 +29°C° 0 mm 6 mps 761 mmHg 25%
    17:00 +28°C° 0 mm 6 mps 762 mmHg 30%
    18:00 +26°C° 0 mm 6 mps 762 mmHg 36%
    19:00 +24°C° 0 mm 6 mps 762 mmHg 42%
    20:00 +23°C° 0 mm 6 mps 762 mmHg 44%
    21:00 +23°C° 0 mm 6 mps 762 mmHg 46%
    22:00 +22°C° 0 mm 6 mps 762 mmHg 47%
    23:00 +22°C° 0 mm 5 mps 762 mmHg 49%

    Tomorrow, 21 November, Tuesday

    Time Temperature Precipitation Wind Pressure Humidity
    00:00 +21°C° 0 mm 5 mps 762 mmHg 50%
    01:00 +21°C° 0 mm 5 mps 762 mmHg 52%
    02:00 +21°C° 0 mm 5 mps 762 mmHg 53%
    03:00 +20°C° 0 mm 5 mps 761 mmHg 54%
    04:00 +20°C° 0 mm 5 mps 761 mmHg 55%
    05:00 +20°C° 0 mm 5 mps 762 mmHg 54%
    06:00 +20°C° 0 mm 5 mps 762 mmHg 53%
    07:00 +20°C° 0 mm 4 mps 762 mmHg 53%
    08:00 +23°C° 0 mm 5 mps 762 mmHg 44%
    09:00 +26°C° 0 mm 5 mps 763 mmHg 36%
    10:00 +29°C° 0 mm 5 mps 763 mmHg 27%
    11:00 +29°C° 0 mm 5 mps 762 mmHg 25%
    12:00 +30°C° 0 mm 5 mps 762 mmHg 23%
    13:00 +32°C° 0 mm 4 mps 761 mmHg 21%
    14:00 +30°C° 0 mm 4 mps 761 mmHg 23%
    15:00 +30°C° 0 mm 4 mps 760 mmHg 25%
    16:00 +30°C° 0 mm 4 mps 760 mmHg 27%
    17:00 +28°C° 0 mm 4 mps 760 mmHg 34%
    18:00 +26°C° 0 mm 4 mps 761 mmHg 41%
    19:00 +23°C° 0 mm 4 mps 761 mmHg 48%
    20:00 +23°C° 0 mm 4 mps 761 mmHg 50%
    21:00 +23°C° 0 mm 4 mps 761 mmHg 53%
    22:00 +22°C° 0 mm 4 mps 761 mmHg 55%
    23:00 +22°C° 0 mm 4 mps 761 mmHg 57%

    Day after tomorrow, 22 November, Wednesday

    Time Temperature Precipitation Wind Pressure Humidity
    00:00 +22°C° 0 mm 4 mps 760 mmHg 58%
    01:00 +21°C° 0 mm 3 mps 760 mmHg 60%
    02:00 +21°C° 0 mm 3 mps 760 mmHg 61%
    03:00 +21°C° 0 mm 3 mps 760 mmHg 62%
    04:00 +20°C° 0 mm 3 mps 760 mmHg 63%
    05:00 +20°C° 0 mm 3 mps 760 mmHg 62%
    06:00 +21°C° 0 mm 3 mps 760 mmHg 61%
    07:00 +21°C° 0 mm 3 mps 761 mmHg 61%
    08:00 +24°C° 0 mm 3 mps 761 mmHg 54%
    09:00 +26°C° 0 mm 3 mps 761 mmHg 48%
    10:00 +28°C° 0 mm 3 mps 761 mmHg 41%
    11:00 +29°C° 0 mm 3 mps 761 mmHg 38%
    12:00 +30°C° 0 mm 3 mps 760 mmHg 35%
    13:00 +31°C° 0 mm 3 mps 760 mmHg 32%
    14:00 +30°C° 0 mm 3 mps 759 mmHg 33%
    15:00 +30°C° 0 mm 3 mps 759 mmHg 34%
    16:00 +30°C° 0 mm 3 mps 759 mmHg 36%
    17:00 +28°C° 0 mm 4 mps 759 mmHg 42%
    18:00 +27°C° 0 mm 4 mps 759 mmHg 49%
    19:00 +25°C° 0 mm 4 mps 760 mmHg 55%
    20:00 +25°C° 0 mm 4 mps 760 mmHg 57%
    21:00 +23°C° 0 mm 4 mps 760 mmHg 58%
    22:00 +23°C° 0 mm 4 mps 760 mmHg 60%
    23:00 +24°C° 0 mm 3 mps 760 mmHg 62%

    23 November, Thursday

    Time Temperature Precipitation Wind Pressure Humidity
    00:00 +22°C° 0 mm 3 mps 760 mmHg 64%
    01:00 +22°C° 0 mm 3 mps 760 mmHg 66%
    02:00 +21°C° 0 mm 3 mps 759 mmHg 68%
    03:00 +21°C° 0 mm 2 mps 759 mmHg 71%
    04:00 +20°C° 0 mm 2 mps 759 mmHg 73%
    05:00 +21°C° 0 mm 2 mps 759 mmHg 71%
    06:00 +21°C° 0 mm 2 mps 760 mmHg 69%
    07:00 +21°C° 0 mm 2 mps 760 mmHg 67%
    08:00 +24°C° 0 mm 2 mps 760 mmHg 60%
    09:00 +26°C° 0 mm 1 mps 761 mmHg 53%
    10:00 +28°C° 0 mm 1 mps 761 mmHg 46%
    11:00 +29°C° 0 mm 1 mps 760 mmHg 41%
    12:00 +30°C° 0 mm 2 mps 760 mmHg 36%
    13:00 +31°C° 0 mm 2 mps 759 mmHg 32%
    14:00 +31°C° 0 mm 2 mps 759 mmHg 33%
    15:00 +31°C° 0 mm 3 mps 758 mmHg 33%
    16:00 +32°C° 0 mm 4 mps 758 mmHg 34%
    17:00 +29°C° 0 mm 4 mps 759 mmHg 43%
    18:00 +27°C° 0 mm 4 mps 759 mmHg 51%
    19:00 +25°C° 0 mm 4 mps 759 mmHg 59%
    20:00 +25°C° 0 mm 4 mps 760 mmHg 59%
    21:00 +24°C° 0 mm 3 mps 760 mmHg 59%
    22:00 +24°C° 0 mm 3 mps 760 mmHg 59%
    23:00 +24°C° 0 mm 3 mps 760 mmHg 61%

    24 November, Friday

    Time Temperature Precipitation Wind Pressure Humidity
    00:00 +22°C° 0 mm 3 mps 760 mmHg 62%
    01:00 +23°C° 0 mm 2 mps 759 mmHg 64%
    02:00 +21°C° 0 mm 2 mps 759 mmHg 68%
    03:00 +21°C° 0 mm 1 mps 759 mmHg 73%
    04:00 +21°C° 0 mm 1 mps 759 mmHg 77%
    05:00 +21°C° 0 mm 1 mps 760 mmHg 73%
    06:00 +22°C° 0 mm 1 mps 760 mmHg 70%
    07:00 +22°C° 0 mm 1 mps 761 mmHg 66%
    08:00 +24°C° 0 mm 1 mps 761 mmHg 59%
    09:00 +26°C° 0 mm 1 mps 762 mmHg 52%
    10:00 +26°C° 0 mm 0 mps 762 mmHg 44%
    11:00 +29°C° 0 mm 1 mps 761 mmHg 40%
    12:00 +30°C° 0 mm 1 mps 761 mmHg 36%
    13:00 +31°C° 0 mm 1 mps 760 mmHg 31%
    14:00 +31°C° 0 mm 2 mps 760 mmHg 31%
    15:00 +31°C° 0 mm 2 mps 759 mmHg 31%
    16:00 +33°C° 0 mm 3 mps 759 mmHg 31%
    17:00 +29°C° 0 mm 3 mps 760 mmHg 41%
    18:00 +27°C° 0 mm 4 mps 760 mmHg 52%
    19:00 +25°C° 0 mm 4 mps 761 mmHg 62%
    20:00 +25°C° 0 mm 4 mps 761 mmHg 63%
    21:00 +25°C° 0 mm 3 mps 761 mmHg 64%
    22:00 +24°C° 0 mm 3 mps 762 mmHg 65%
    23:00 +23°C° 0 mm 2 mps 761 mmHg 68%

    25 November, Saturday

    Time Temperature Precipitation Wind Pressure Humidity
    00:00 +23°C° 0 mm 2 mps 761 mmHg 70%
    01:00 +22°C° 0 mm 1 mps 761 mmHg 72%
    02:00 +22°C° 0 mm 1 mps 761 mmHg 75%
    03:00 +21°C° 0 mm 1 mps 761 mmHg 77%
    04:00 +19°C° 0 mm 0 mps 761 mmHg 79%
    05:00 +21°C° 0 mm 1 mps 762 mmHg 76%
    06:00 +22°C° 0 mm 1 mps 762 mmHg 73%
    07:00 +22°C° 0 mm 1 mps 763 mmHg 70%
    08:00 +25°C° 0 mm 2 mps 763 mmHg 61%
    09:00 +27°C° 0 mm 2 mps 763 mmHg 51%
    10:00 +29°C° 0 mm 2 mps 763 mmHg 42%
    11:00 +30°C° 0 mm 1 mps 762 mmHg 38%
    12:00 +31°C° 0 mm 1 mps 761 mmHg 34%
    13:00 +33°C° 0 mm 1 mps 761 mmHg 29%
    14:00 +34°C° 0 mm 2 mps 761 mmHg 29%
    15:00 +34°C° 0 mm 2 mps 760 mmHg 29%
    16:00 +34°C° 0 mm 3 mps 760 mmHg 29%
    17:00 +31°C° 0 mm 3 mps 761 mmHg 39%
    18:00 +29°C° 0 mm 3 mps 761 mmHg 49%
    19:00 +26°C° 0 mm 3 mps 762 mmHg 58%
    20:00 +26°C° 0 mm 3 mps 762 mmHg 60%
    21:00 +26°C° 0 mm 3 mps 762 mmHg 62%
    22:00 +25°C° 0 mm 3 mps 762 mmHg 63%
    23:00 +25°C° 0 mm 3 mps 762 mmHg 66%
    Show more